Regional Weather Roundup
Issued by NWS

Home | Current Version | Previous Version | Text Only | Print | Product List | Glossary Off
Versions: 1 2 3 4 5 6 7 8 9 10 11 12 13 14 15 16 17 18 19 20 21 22 23 24 25 26 27 28 29 30 31 32 33 34 35 36 37 38 39 40 41 42 43 44 45 46 47 48 49 50

000
ASUS45 KCYS 230210
RWRWY

WYOMING REGIONAL WEATHER ROUNDUP
NATIONAL WEATHER SERVICE CHEYENNE WY
800 PM MDT FRI AUG 22 2014

NOTE:  "FAIR" INDICATES FEW OR NO CLOUDS BELOW 12,000 FEET
WITH NO SIGNIFICANT WEATHER AND/OR OBSTRUCTIONS TO VISIBILITY.

WYZ001-230300-
YELLOWSTONE NATIONAL PARK

CITY           SKY/WX    TMP DP  RH WIND       PRES   REMARKS
LK YELLOWSTONE   N/A     47  41  80 VRB5      30.19R
W YELLOWSTONE  NOT AVBL

$$
WYZ002>013-054>058-071-098>099-230300-
NORTHERN WYOMING

CITY           SKY/WX    TMP DP  RH WIND       PRES   REMARKS
JACKSON        CLOUDY    48  45  87 S7        30.12F
CODY           CLOUDY    57  52  82 N9        30.04S
GREYBULL       MOCLDY    68  53  58 N13       29.93F
WORLAND        CLOUDY    68  51  54 NW8       29.95R
SHERIDAN       CLOUDY    64  53  67 N12       30.01S
BUFFALO        LGT RAIN  61  58  90 N6        30.05R
GILLETTE       RAIN      61  60  97 E13       30.03R FOG
HULETT         CLOUDY    64  59  82 MISG      30.03
NEWCASTLE      FAIR      70  52  52 SE18G25   30.00

$$
WYZ014>020-022>026-101>103-230300-
CENTRAL WYOMING

CITY           SKY/WX    TMP DP  RH WIND       PRES   REMARKS
BIG PINEY      RAIN      48  45  89 CALM      30.18R FOG
PINEDALE       RAIN      46  45  93 NW7       30.19R
DUBOIS         LGT RAIN  48  43  81 NW8       30.14R
LANDER         LGT RAIN  56  53  90 S8        30.03S
RIVERTON       CLOUDY    56  52  86 W9        30.02F
CASPER         LGT RAIN  65  52  62 N13       30.00S
DOUGLAS        CLOUDY    65  59  81 E10       30.01F

$$
WYZ021-027>030-104>119-230300-
SOUTHERN WYOMING

CITY           SKY/WX    TMP DP  RH WIND       PRES   REMARKS
EVANSTON       LGT RAIN  48  46  93 N8G21     30.14S FOG
KEMMERER       RAIN      45  43  93 N6        30.18F
FORT BRIDGER   CLOUDY    49  48  97 N16       30.18R THUNDER
ROCK SPRINGS   CLOUDY    57  48  72 W5        30.09R
DIXON          MOCLDY    62  52  69 E6        30.09S
RAWLINS        CLOUDY    66  42  41 S10       30.06S
SARATOGA       MOCLDY    61  48  63 MISG      30.09S
LARAMIE        CLOUDY    59  50  72 SE23G32   30.11S
CHEYENNE       CLOUDY    58  56  93 S22G28    30.09R
TORRINGTON     CLOUDY    64  59  83 SE16      30.00R
PINE BLUFFS    FAIR      61  55  82 SE20G26   30.07R

$$


USA.gov is the U.S. government's official web portal to all federal, state and local government web resources and services.